Time,TemperatureF,DewpointF,PressureIn,WindDirection,WindDirectionDegrees,WindSpeedMPH,WindSpeedGustMPH,Humidity,HourlyPrecipIn,Conditions,Clouds,dailyrainin,SoftwareType,DateUTC
2013-04-24 00:01:00,56.0,33.8,29.95,SSE,158,8.0,16.0,43,0.00,,---,0.00,VWS V14.01,2013-04-24 04:01:00,
2013-04-24 00:02:00,56.0,33.8,29.95,SSE,158,11.0,11.0,43,0.00,,---,0.00,VWS V14.01,2013-04-24 04:02:00,
2013-04-24 00:07:00,56.0,34.4,29.95,SSE,158,7.0,13.0,44,0.00,,---,0.00,VWS V14.01,2013-04-24 04:07:00,
2013-04-24 00:12:00,56.0,34.4,29.95,SSE,158,10.0,15.0,44,0.00,,---,0.00,VWS V14.01,2013-04-24 04:12:00,
2013-04-24 00:18:00,56.0,35.0,29.94,SE,135,7.0,15.0,45,0.00,,---,0.00,VWS V14.01,2013-04-24 04:18:00,
2013-04-24 00:23:00,55.0,34.1,29.94,SSE,158,8.0,14.0,45,0.00,,---,0.00,VWS V14.01,2013-04-24 04:23:00,
2013-04-24 00:28:00,55.0,34.6,29.94,South,180,8.0,15.0,46,0.00,,---,0.00,VWS V14.01,2013-04-24 04:28:00,
2013-04-24 00:33:00,55.0,34.6,29.94,SSE,158,8.0,15.0,46,0.00,,---,0.00,VWS V14.01,2013-04-24 04:33:00,
2013-04-24 00:38:00,55.0,34.6,29.94,SE,135,5.0,15.0,46,0.00,,---,0.00,VWS V14.01,2013-04-24 04:38:00,
2013-04-24 00:43:00,55.0,35.2,29.94,SSE,158,6.0,14.0,47,0.00,,---,0.00,VWS V14.01,2013-04-24 04:43:00,
2013-04-24 00:48:00,55.0,35.2,29.94,SSE,158,12.0,15.0,47,0.00,,---,0.00,VWS V14.01,2013-04-24 04:48:00,
2013-04-24 00:53:00,54.0,34.8,29.94,SE,135,6.0,15.0,48,0.00,,---,0.00,VWS V14.01,2013-04-24 04:53:00,
2013-04-24 00:58:00,54.0,34.8,29.94,SE,135,10.0,15.0,48,0.00,,---,0.00,VWS V14.01,2013-04-24 04:58:00,
2013-04-24 01:03:00,54.0,35.3,29.94,SE,135,11.0,14.0,49,0.00,,---,0.00,VWS V14.01,2013-04-24 05:03:00,
2013-04-24 01:08:00,54.0,35.3,29.94,SE,135,6.0,14.0,49,0.00,,---,0.00,VWS V14.01,2013-04-24 05:08:00,
2013-04-24 01:13:00,54.0,35.3,29.93,SE,135,7.0,14.0,49,0.00,,---,0.00,VWS V14.01,2013-04-24 05:13:00,
2013-04-24 01:18:00,54.0,35.8,29.93,SE,135,8.0,16.0,50,0.00,,---,0.00,VWS V14.01,2013-04-24 05:18:00,
2013-04-24 01:24:00,54.0,35.8,29.92,SSE,158,13.0,14.0,50,0.00,,---,0.00,VWS V14.01,2013-04-24 05:24:00,
2013-04-24 01:29:00,54.0,35.8,29.92,SE,135,7.0,16.0,50,0.00,,---,0.00,VWS V14.01,2013-04-24 05:29:00,
2013-04-24 01:34:00,54.0,36.3,29.92,South,180,7.0,16.0,51,0.00,,---,0.00,VWS V14.01,2013-04-24 05:34:00,
2013-04-24 01:39:00,53.0,35.4,29.92,SSE,158,7.0,16.0,51,0.00,,---,0.00,VWS V14.01,2013-04-24 05:39:00,
2013-04-24 01:44:00,53.0,35.9,29.92,SE,135,7.0,13.0,52,0.00,,---,0.00,VWS V14.01,2013-04-24 05:44:00,
2013-04-24 01:49:00,53.0,35.9,29.91,SE,135,11.0,17.0,52,0.00,,---,0.00,VWS V14.01,2013-04-24 05:49:00,
2013-04-24 01:54:00,53.0,35.9,29.91,SE,135,13.0,19.0,52,0.00,,---,0.00,VWS V14.01,2013-04-24 05:54:00,
2013-04-24 01:59:00,53.0,36.3,29.91,South,180,8.0,19.0,53,0.00,,---,0.00,VWS V14.01,2013-04-24 05:59:00,
2013-04-24 02:04:00,53.0,36.3,29.91,SE,135,7.0,13.0,53,0.00,,---,0.00,VWS V14.01,2013-04-24 06:04:00,
2013-04-24 02:09:00,53.0,36.3,29.92,SE,135,12.0,17.0,53,0.00,,---,0.00,VWS V14.01,2013-04-24 06:09:00,
2013-04-24 02:14:00,52.0,35.4,29.91,SSE,158,6.0,17.0,53,0.00,,---,0.00,VWS V14.01,2013-04-24 06:14:00,
2013-04-24 02:19:00,52.0,35.9,29.91,SE,135,6.0,17.0,54,0.00,,---,0.00,VWS V14.01,2013-04-24 06:19:00,
2013-04-24 02:24:00,52.0,35.9,29.91,SSE,158,5.0,14.0,54,0.00,,---,0.00,VWS V14.01,2013-04-24 06:24:00,
2013-04-24 02:30:00,52.0,35.9,29.91,South,180,7.0,14.0,54,0.00,,---,0.00,VWS V14.01,2013-04-24 06:30:00,
2013-04-24 02:35:00,52.0,35.9,29.90,ESE,112,5.0,14.0,54,0.00,,---,0.00,VWS V14.01,2013-04-24 06:35:00,
2013-04-24 02:40:00,52.0,35.9,29.90,SE,135,7.0,14.0,54,0.00,,---,0.00,VWS V14.01,2013-04-24 06:40:00,
2013-04-24 02:45:00,52.0,36.3,29.91,SSE,158,8.0,10.0,55,0.00,,---,0.00,VWS V14.01,2013-04-24 06:45:00,
2013-04-24 02:50:00,52.0,36.3,29.90,SSE,158,6.0,11.0,55,0.00,,---,0.00,VWS V14.01,2013-04-24 06:50:00,
2013-04-24 02:55:00,52.0,36.3,29.90,SSE,158,5.0,12.0,55,0.00,,---,0.00,VWS V14.01,2013-04-24 06:55:00,
2013-04-24 03:00:00,52.0,36.3,29.89,SE,135,8.0,13.0,55,0.00,,---,0.00,VWS V14.01,2013-04-24 07:00:00,
2013-04-24 03:05:00,52.0,36.8,29.89,SE,135,7.0,11.0,56,0.00,,---,0.00,VWS V14.01,2013-04-24 07:05:00,
2013-04-24 03:10:00,52.0,36.8,29.90,SE,135,6.0,11.0,56,0.00,,---,0.00,VWS V14.01,2013-04-24 07:10:00,
2013-04-24 03:15:00,51.0,36.3,29.89,SSE,158,8.0,11.0,57,0.00,,---,0.00,VWS V14.01,2013-04-24 07:15:00,
2013-04-24 03:20:00,51.0,36.3,29.89,SE,135,8.0,11.0,57,0.00,,---,0.00,VWS V14.01,2013-04-24 07:20:00,
2013-04-24 03:25:00,52.0,37.2,29.89,SE,135,7.0,13.0,57,0.00,,---,0.00,VWS V14.01,2013-04-24 07:25:00,
2013-04-24 03:31:00,52.0,37.2,29.89,SE,135,2.0,13.0,57,0.00,,---,0.00,VWS V14.01,2013-04-24 07:31:00,
2013-04-24 03:36:00,52.0,37.2,29.89,SSE,158,9.0,13.0,57,0.00,,---,0.00,VWS V14.01,2013-04-24 07:36:00,
2013-04-24 03:41:00,52.0,36.8,29.89,South,180,8.0,11.0,56,0.00,,---,0.00,VWS V14.01,2013-04-24 07:41:00,
2013-04-24 03:46:00,52.0,36.8,29.89,SE,135,7.0,11.0,56,0.00,,---,0.00,VWS V14.01,2013-04-24 07:46:00,
2013-04-24 03:51:00,52.0,36.8,29.89,South,180,6.0,16.0,56,0.00,,---,0.00,VWS V14.01,2013-04-24 07:51:00,
2013-04-24 03:56:00,52.0,36.8,29.89,South,180,3.0,16.0,56,0.00,,---,0.00,VWS V14.01,2013-04-24 07:56:00,
2013-04-24 04:01:00,52.0,36.8,29.88,South,180,5.0,9.0,56,0.00,,---,0.00,VWS V14.01,2013-04-24 08:01:00,
2013-04-24 04:06:00,52.0,37.2,29.88,SE,135,5.0,9.0,57,0.00,,---,0.00,VWS V14.01,2013-04-24 08:06:00,
2013-04-24 04:11:00,52.0,37.2,29.88,SE,135,8.0,10.0,57,0.00,,---,0.00,VWS V14.01,2013-04-24 08:11:00,
2013-04-24 04:16:00,52.0,37.2,29.88,South,180,3.0,12.0,57,0.00,,---,0.00,VWS V14.01,2013-04-24 08:16:00,
2013-04-24 04:21:00,52.0,37.2,29.87,SSE,158,8.0,11.0,57,0.00,,---,0.00,VWS V14.01,2013-04-24 08:21:00,
2013-04-24 04:26:00,52.0,37.2,29.88,SSE,158,5.0,13.0,57,0.00,,---,0.00,VWS V14.01,2013-04-24 08:26:00,
2013-04-24 04:32:00,52.0,37.2,29.88,South,180,10.0,13.0,57,0.00,,---,0.00,VWS V14.01,2013-04-24 08:32:00,
2013-04-24 04:37:00,52.0,37.2,29.87,SSE,158,6.0,16.0,57,0.00,,---,0.00,VWS V14.01,2013-04-24 08:37:00,
2013-04-24 04:42:00,52.0,37.2,29.87,ESE,112,8.0,10.0,57,0.00,,---,0.00,VWS V14.01,2013-04-24 08:42:00,
2013-04-24 04:47:00,52.0,37.2,29.87,ESE,112,3.0,12.0,57,0.00,,---,0.00,VWS V14.01,2013-04-24 08:47:00,
2013-04-24 04:52:00,52.0,37.2,29.87,SE,135,6.0,12.0,57,0.00,,---,0.00,VWS V14.01,2013-04-24 08:52:00,
2013-04-24 04:57:00,52.0,37.2,29.88,SSW,202,3.0,15.0,57,0.00,,---,0.00,VWS V14.01,2013-04-24 08:57:00,
2013-04-24 05:02:00,52.0,37.2,29.88,South,180,2.0,8.0,57,0.00,,---,0.00,VWS V14.01,2013-04-24 09:02:00,
2013-04-24 05:07:00,52.0,38.1,29.88,South,180,5.0,12.0,59,0.00,,---,0.00,VWS V14.01,2013-04-24 09:07:00,
2013-04-24 05:12:00,52.0,38.1,29.88,SSW,202,5.0,12.0,59,0.00,,---,0.00,VWS V14.01,2013-04-24 09:12:00,
2013-04-24 05:17:00,52.0,38.1,29.88,SE,135,4.0,12.0,59,0.00,,---,0.00,VWS V14.01,2013-04-24 09:17:00,
2013-04-24 05:22:00,52.0,38.1,29.89,South,180,5.0,6.0,59,0.00,,---,0.00,VWS V14.01,2013-04-24 09:22:00,
2013-04-24 05:27:00,52.0,38.6,29.90,South,180,5.0,6.0,60,0.00,,---,0.00,VWS V14.01,2013-04-24 09:27:00,
2013-04-24 05:32:00,52.0,38.6,29.89,South,180,2.0,6.0,60,0.00,,---,0.00,VWS V14.01,2013-04-24 09:32:00,
2013-04-24 05:38:00,52.0,38.1,29.89,SE,135,4.0,10.0,59,0.00,,---,0.00,VWS V14.01,2013-04-24 09:38:00,
2013-04-24 05:43:00,52.0,38.1,29.88,South,180,7.0,9.0,59,0.00,,---,0.00,VWS V14.01,2013-04-24 09:43:00,
2013-04-24 05:48:00,52.0,37.7,29.88,SSE,158,8.0,10.0,58,0.00,,---,0.00,VWS V14.01,2013-04-24 09:48:00,
2013-04-24 05:53:00,52.0,37.7,29.88,SE,135,6.0,11.0,58,0.00,,---,0.00,VWS V14.01,2013-04-24 09:53:00,
2013-04-24 05:58:00,52.0,37.7,29.88,SW,225,5.0,11.0,58,0.00,,---,0.00,VWS V14.01,2013-04-24 09:58:00,
2013-04-24 06:03:00,53.0,38.6,29.89,SW,225,6.0,14.0,58,0.00,,---,0.00,VWS V14.01,2013-04-24 10:03:00,
2013-04-24 06:08:00,52.0,38.6,29.89,South,180,10.0,14.0,60,0.00,,---,0.00,VWS V14.01,2013-04-24 10:08:00,
2013-04-24 06:13:00,52.0,39.4,29.89,South,180,13.0,14.0,62,0.00,,---,0.00,VWS V14.01,2013-04-24 10:13:00,
2013-04-24 06:18:00,51.0,39.7,29.89,SSE,158,13.0,16.0,65,0.00,,---,0.00,VWS V14.01,2013-04-24 10:18:00,
2013-04-24 06:23:00,51.0,41.6,29.87,South,180,7.0,14.0,70,0.00,,---,0.00,VWS V14.01,2013-04-24 10:23:00,
2013-04-24 06:28:00,50.0,42.0,29.86,SE,135,11.0,14.0,74,0.01,,---,0.01,VWS V14.01,2013-04-24 10:28:00,
2013-04-24 06:34:00,49.0,42.1,29.85,SE,135,9.0,15.0,77,0.01,,---,0.01,VWS V14.01,2013-04-24 10:34:00,
2013-04-24 06:39:00,49.0,42.8,29.85,SE,135,11.0,15.0,79,0.01,,---,0.01,VWS V14.01,2013-04-24 10:39:00,
2013-04-24 06:44:00,49.0,43.4,29.86,South,180,13.0,13.0,81,0.01,,---,0.01,VWS V14.01,2013-04-24 10:44:00,
2013-04-24 06:49:00,49.0,43.8,29.86,South,180,10.0,13.0,82,0.02,,---,0.02,VWS V14.01,2013-04-24 10:49:00,
2013-04-24 06:54:00,48.0,43.1,29.85,SE,135,10.0,13.0,83,0.02,,---,0.02,VWS V14.01,2013-04-24 10:54:00,
2013-04-24 06:59:00,48.0,43.1,29.85,SE,135,7.0,13.0,83,0.02,,---,0.02,VWS V14.01,2013-04-24 10:59:00,
2013-04-24 07:04:00,48.0,43.4,29.86,South,180,4.0,10.0,84,0.02,,---,0.02,VWS V14.01,2013-04-24 11:04:00,
2013-04-24 07:09:00,48.0,43.4,29.87,SSE,158,5.0,10.0,84,0.02,,---,0.02,VWS V14.01,2013-04-24 11:09:00,
2013-04-24 07:14:00,48.0,43.4,29.87,SSE,158,3.0,10.0,84,0.02,,---,0.02,VWS V14.01,2013-04-24 11:14:00,
2013-04-24 07:20:00,49.0,44.1,29.86,South,180,4.0,14.0,83,0.02,,---,0.02,VWS V14.01,2013-04-24 11:20:00,
2013-04-24 07:25:00,49.0,44.1,29.86,SE,135,4.0,9.0,83,0.02,,---,0.02,VWS V14.01,2013-04-24 11:25:00,
2013-04-24 07:30:00,49.0,43.8,29.86,South,180,6.0,11.0,82,0.02,,---,0.02,VWS V14.01,2013-04-24 11:30:00,
2013-04-24 07:35:00,49.0,43.4,29.86,SSE,158,6.0,14.0,81,0.02,,---,0.02,VWS V14.01,2013-04-24 11:35:00,
2013-04-24 07:40:00,50.0,44.1,29.86,SSE,158,7.0,17.0,80,0.02,,---,0.02,VWS V14.01,2013-04-24 11:40:00,
2013-04-24 07:45:00,50.0,43.4,29.86,South,180,9.0,14.0,78,0.01,,---,0.02,VWS V14.01,2013-04-24 11:45:00,
2013-04-24 07:50:00,50.0,43.1,29.86,SSE,158,15.0,16.0,77,0.01,,---,0.02,VWS V14.01,2013-04-24 11:50:00,
2013-04-24 07:55:00,50.0,43.1,29.86,South,180,5.0,16.0,77,0.01,,---,0.02,VWS V14.01,2013-04-24 11:55:00,
2013-04-24 08:00:00,50.0,43.1,29.86,SW,225,10.0,16.0,77,0.01,,---,0.02,VWS V14.01,2013-04-24 12:00:00,
2013-04-24 08:05:00,50.0,43.1,29.86,SSW,202,6.0,13.0,77,0.00,,---,0.02,VWS V14.01,2013-04-24 12:05:00,
2013-04-24 08:10:00,50.0,43.4,29.86,SE,135,8.0,18.0,78,0.00,,---,0.02,VWS V14.01,2013-04-24 12:10:00,
2013-04-24 08:16:00,50.0,44.1,29.86,South,180,10.0,18.0,80,0.00,,---,0.02,VWS V14.01,2013-04-24 12:16:00,
2013-04-24 08:21:00,50.0,44.4,29.85,SSE,158,8.0,13.0,81,0.00,,---,0.02,VWS V14.01,2013-04-24 12:21:00,
2013-04-24 08:26:00,49.0,44.1,29.85,South,180,8.0,14.0,83,0.00,,---,0.02,VWS V14.01,2013-04-24 12:26:00,
2013-04-24 08:31:00,49.0,44.4,29.85,South,180,10.0,14.0,84,0.00,,---,0.02,VWS V14.01,2013-04-24 12:31:00,
2013-04-24 08:36:00,49.0,44.7,29.85,SSE,158,13.0,16.0,85,0.00,,---,0.02,VWS V14.01,2013-04-24 12:36:00,
2013-04-24 08:41:00,49.0,45.0,29.85,South,180,10.0,14.0,86,0.00,,---,0.02,VWS V14.01,2013-04-24 12:41:00,
2013-04-24 08:46:00,50.0,46.3,29.85,SE,135,8.0,19.0,87,0.00,,---,0.02,VWS V14.01,2013-04-24 12:46:00,
2013-04-24 08:51:00,50.0,46.3,29.84,SSE,158,8.0,19.0,87,0.00,,---,0.02,VWS V14.01,2013-04-24 12:51:00,
2013-04-24 08:57:00,50.0,46.3,29.84,SSE,158,8.0,19.0,87,0.00,,---,0.02,VWS V14.01,2013-04-24 12:57:00,
2013-04-24 09:02:00,50.0,46.3,29.84,South,180,10.0,16.0,87,0.00,,---,0.02,VWS V14.01,2013-04-24 13:02:00,
2013-04-24 09:07:00,50.0,46.6,29.83,SE,135,9.0,18.0,88,0.00,,---,0.02,VWS V14.01,2013-04-24 13:07:00,
2013-04-24 09:12:00,51.0,47.6,29.83,South,180,8.0,18.0,88,0.00,,---,0.02,VWS V14.01,2013-04-24 13:12:00,
2013-04-24 09:17:00,51.0,47.3,29.83,South,180,5.0,18.0,87,0.00,,---,0.02,VWS V14.01,2013-04-24 13:17:00,
2013-04-24 09:22:00,52.0,48.3,29.83,SSE,158,11.0,17.0,87,0.00,,---,0.02,VWS V14.01,2013-04-24 13:22:00,
2013-04-24 09:27:00,52.0,48.0,29.82,SSW,202,8.0,17.0,86,0.00,,---,0.02,VWS V14.01,2013-04-24 13:27:00,
2013-04-24 09:32:00,52.0,48.0,29.81,SE,135,7.0,17.0,86,0.00,,---,0.02,VWS V14.01,2013-04-24 13:32:00,
2013-04-24 09:37:00,52.0,48.0,29.81,South,180,15.0,17.0,86,0.00,,---,0.02,VWS V14.01,2013-04-24 13:37:00,
2013-04-24 09:42:00,52.0,47.6,29.80,South,180,8.0,14.0,85,0.00,,---,0.02,VWS V14.01,2013-04-24 13:42:00,
2013-04-24 09:48:00,53.0,48.6,29.80,SE,135,11.0,18.0,85,0.00,,---,0.02,VWS V14.01,2013-04-24 13:48:00,
2013-04-24 09:53:00,54.0,49.3,29.80,South,180,13.0,18.0,84,0.00,,---,0.02,VWS V14.01,2013-04-24 13:53:00,
2013-04-24 09:58:00,55.0,49.6,29.80,SSW,202,13.0,18.0,82,0.00,,---,0.02,VWS V14.01,2013-04-24 13:58:00,
2013-04-24 10:03:00,55.0,49.0,29.80,SSE,158,5.0,14.0,80,0.00,,---,0.02,VWS V14.01,2013-04-24 14:03:00,
2013-04-24 10:08:00,55.0,48.6,29.79,SW,225,11.0,21.0,79,0.00,,---,0.02,VWS V14.01,2013-04-24 14:08:00,
2013-04-24 10:13:00,56.0,48.9,29.79,South,180,17.0,21.0,77,0.00,,---,0.02,VWS V14.01,2013-04-24 14:13:00,
2013-04-24 10:18:00,56.0,48.9,29.79,SW,225,6.0,21.0,77,0.00,,---,0.02,VWS V14.01,2013-04-24 14:18:00,
2013-04-24 10:23:00,57.0,49.5,29.79,SW,225,7.0,13.0,76,0.00,,---,0.02,VWS V14.01,2013-04-24 14:23:00,
2013-04-24 10:28:00,58.0,49.8,29.78,South,180,8.0,15.0,74,0.00,,---,0.02,VWS V14.01,2013-04-24 14:28:00,
2013-04-24 10:33:00,58.0,49.0,29.79,South,180,5.0,17.0,72,0.00,,---,0.02,VWS V14.01,2013-04-24 14:33:00,
2013-04-24 10:39:00,59.0,49.2,29.79,WSW,248,8.0,17.0,70,0.00,,---,0.02,VWS V14.01,2013-04-24 14:39:00,
2013-04-24 10:44:00,58.0,47.9,29.78,South,180,9.0,14.0,69,0.00,,---,0.02,VWS V14.01,2013-04-24 14:44:00,
2013-04-24 10:49:00,58.0,47.9,29.78,SSW,202,8.0,20.0,69,0.00,,---,0.02,VWS V14.01,2013-04-24 14:49:00,
2013-04-24 10:54:00,59.0,48.9,29.78,South,180,6.0,20.0,69,0.00,,---,0.02,VWS V14.01,2013-04-24 14:54:00,
2013-04-24 10:59:00,60.0,49.8,29.78,SW,225,14.0,20.0,69,0.00,,---,0.02,VWS V14.01,2013-04-24 14:59:00,
2013-04-24 11:04:00,60.0,49.0,29.78,South,180,14.0,19.0,67,0.00,,---,0.02,VWS V14.01,2013-04-24 15:04:00,
2013-04-24 11:09:00,59.0,48.1,29.78,West,270,9.0,19.0,67,0.00,,---,0.02,VWS V14.01,2013-04-24 15:09:00,
2013-04-24 11:14:00,59.0,48.5,29.77,SSW,202,4.0,19.0,68,0.00,,---,0.02,VWS V14.01,2013-04-24 15:14:00,
2013-04-24 11:19:00,59.0,49.2,29.77,South,180,7.0,19.0,70,0.00,,---,0.02,VWS V14.01,2013-04-24 15:19:00,
2013-04-24 11:24:00,60.0,50.2,29.76,SSE,158,6.0,19.0,70,0.00,,---,0.02,VWS V14.01,2013-04-24 15:24:00,
2013-04-24 11:29:00,60.0,49.8,29.76,SSE,158,9.0,19.0,69,0.00,,---,0.02,VWS V14.01,2013-04-24 15:29:00,
2013-04-24 11:35:00,60.0,49.8,29.77,SSW,202,16.0,19.0,69,0.00,,---,0.02,VWS V14.01,2013-04-24 15:35:00,
2013-04-24 11:40:00,60.0,49.8,29.76,SW,225,11.0,19.0,69,0.00,,---,0.02,VWS V14.01,2013-04-24 15:40:00,
2013-04-24 11:45:00,60.0,49.8,29.76,SSW,202,8.0,18.0,69,0.00,,---,0.02,VWS V14.01,2013-04-24 15:45:00,
2013-04-24 11:50:00,60.0,49.8,29.76,WSW,248,13.0,18.0,69,0.00,,---,0.02,VWS V14.01,2013-04-24 15:50:00,
2013-04-24 11:55:00,60.0,49.8,29.76,SSW,202,9.0,19.0,69,0.00,,---,0.02,VWS V14.01,2013-04-24 15:55:00,
2013-04-24 12:00:00,60.0,49.8,29.75,SSW,202,8.0,19.0,69,0.00,,---,0.02,VWS V14.01,2013-04-24 16:00:00,
2013-04-24 12:05:00,60.0,49.4,29.76,SSW,202,6.0,18.0,68,0.00,,---,0.02,VWS V14.01,2013-04-24 16:05:00,
2013-04-24 12:10:00,60.0,49.4,29.76,SW,225,8.0,18.0,68,0.00,,---,0.02,VWS V14.01,2013-04-24 16:10:00,
2013-04-24 12:16:00,60.0,49.4,29.76,South,180,8.0,18.0,68,0.00,,---,0.02,VWS V14.01,2013-04-24 16:16:00,
2013-04-24 12:21:00,60.0,49.4,29.76,SW,225,8.0,13.0,68,0.00,,---,0.02,VWS V14.01,2013-04-24 16:21:00,
2013-04-24 12:26:00,60.0,49.4,29.77,WSW,248,13.0,18.0,68,0.00,,---,0.02,VWS V14.01,2013-04-24 16:26:00,
2013-04-24 12:31:00,59.0,48.9,29.78,SW,225,16.0,20.0,69,0.00,,---,0.02,VWS V14.01,2013-04-24 16:31:00,
2013-04-24 12:36:00,59.0,49.6,29.78,SSW,202,11.0,20.0,71,0.00,,---,0.02,VWS V14.01,2013-04-24 16:36:00,
2013-04-24 12:41:00,58.0,50.1,29.76,SSW,202,8.0,11.0,75,0.01,,---,0.03,VWS V14.01,2013-04-24 16:41:00,
2013-04-24 12:46:00,57.0,50.2,29.76,SSW,202,5.0,14.0,78,0.01,,---,0.03,VWS V14.01,2013-04-24 16:46:00,
2013-04-24 12:51:00,56.0,49.9,29.73,SW,225,3.0,14.0,80,0.02,,---,0.04,VWS V14.01,2013-04-24 16:51:00,
2013-04-24 12:56:00,56.0,50.3,29.71,SSE,158,5.0,14.0,81,0.02,,---,0.04,VWS V14.01,2013-04-24 16:56:00,
2013-04-24 13:01:00,56.0,50.9,29.73,South,180,8.0,9.0,83,0.02,,---,0.04,VWS V14.01,2013-04-24 17:01:00,
2013-04-24 13:07:00,56.0,51.2,29.75,SSE,158,7.0,16.0,84,0.02,,---,0.04,VWS V14.01,2013-04-24 17:07:00,
2013-04-24 13:12:00,56.0,51.6,29.75,South,180,6.0,16.0,85,0.02,,---,0.04,VWS V14.01,2013-04-24 17:12:00,
2013-04-24 13:17:00,56.0,51.6,29.76,SW,225,8.0,19.0,85,0.02,,---,0.04,VWS V14.01,2013-04-24 17:17:00,
2013-04-24 13:22:00,56.0,51.6,29.75,SSW,202,10.0,10.0,85,0.03,,---,0.05,VWS V14.01,2013-04-24 17:22:00,
2013-04-24 13:27:00,56.0,51.9,29.72,South,180,11.0,14.0,86,0.03,,---,0.05,VWS V14.01,2013-04-24 17:27:00,
2013-04-24 13:32:00,56.0,51.9,29.73,SSW,202,6.0,15.0,86,0.03,,---,0.05,VWS V14.01,2013-04-24 17:32:00,
2013-04-24 13:37:00,56.0,51.9,29.73,South,180,8.0,15.0,86,0.03,,---,0.05,VWS V14.01,2013-04-24 17:37:00,
2013-04-24 13:42:00,56.0,51.9,29.71,South,180,10.0,13.0,86,0.02,,---,0.05,VWS V14.01,2013-04-24 17:42:00,
2013-04-24 13:47:00,56.0,51.9,29.72,SSE,158,6.0,14.0,86,0.02,,---,0.05,VWS V14.01,2013-04-24 17:47:00,
2013-04-24 13:52:00,56.0,51.9,29.72,SSE,158,5.0,14.0,86,0.02,,---,0.05,VWS V14.01,2013-04-24 17:52:00,
2013-04-24 13:57:00,56.0,51.9,29.72,SSW,202,11.0,14.0,86,0.02,,---,0.05,VWS V14.01,2013-04-24 17:57:00,
2013-04-24 14:02:00,56.0,51.9,29.72,SSE,158,5.0,11.0,86,0.01,,---,0.05,VWS V14.01,2013-04-24 18:02:00,
2013-04-24 14:08:00,56.0,51.9,29.71,South,180,5.0,14.0,86,0.01,,---,0.05,VWS V14.01,2013-04-24 18:08:00,
2013-04-24 14:13:00,57.0,53.2,29.72,SSE,158,6.0,17.0,87,0.02,,---,0.06,VWS V14.01,2013-04-24 18:13:00,
2013-04-24 14:18:00,56.0,52.2,29.72,South,180,8.0,17.0,87,0.02,,---,0.06,VWS V14.01,2013-04-24 18:18:00,
2013-04-24 14:23:00,56.0,52.5,29.72,SSW,202,8.0,10.0,88,0.03,,---,0.07,VWS V14.01,2013-04-24 18:23:00,
2013-04-24 14:28:00,56.0,52.8,29.71,SSW,202,8.0,14.0,89,0.04,,---,0.08,VWS V14.01,2013-04-24 18:28:00,
2013-04-24 14:33:00,56.0,52.8,29.72,SSW,202,7.0,14.0,89,0.05,,---,0.09,VWS V14.01,2013-04-24 18:33:00,
2013-04-24 14:38:00,56.0,53.1,29.71,SSE,158,10.0,14.0,90,0.06,,---,0.10,VWS V14.01,2013-04-24 18:38:00,
2013-04-24 14:43:00,56.0,53.1,29.71,SE,135,6.0,13.0,90,0.05,,---,0.10,VWS V14.01,2013-04-24 18:43:00,
2013-04-24 14:48:00,56.0,53.1,29.71,SSW,202,11.0,18.0,90,0.07,,---,0.12,VWS V14.01,2013-04-24 18:48:00,
2013-04-24 14:53:00,56.0,53.4,29.70,SW,225,5.0,18.0,91,0.08,,---,0.13,VWS V14.01,2013-04-24 18:53:00,
2013-04-24 14:59:00,56.0,53.1,29.71,SW,225,11.0,19.0,90,0.08,,---,0.13,VWS V14.01,2013-04-24 18:59:00,
2013-04-24 15:04:00,56.0,53.1,29.70,South,180,11.0,20.0,90,0.09,,---,0.14,VWS V14.01,2013-04-24 19:04:00,
2013-04-24 15:09:00,56.0,53.1,29.70,SSW,202,5.0,20.0,90,0.09,,---,0.14,VWS V14.01,2013-04-24 19:09:00,
2013-04-24 15:14:00,57.0,54.1,29.70,South,180,10.0,20.0,90,0.10,,---,0.15,VWS V14.01,2013-04-24 19:14:00,
2013-04-24 15:19:00,57.0,54.1,29.70,SSW,202,7.0,20.0,90,0.10,,---,0.15,VWS V14.01,2013-04-24 19:19:00,
2013-04-24 15:24:00,57.0,54.1,29.69,SW,225,9.0,14.0,90,0.09,,---,0.16,VWS V14.01,2013-04-24 19:24:00,
2013-04-24 15:29:00,56.0,53.1,29.68,South,180,11.0,18.0,90,0.10,,---,0.17,VWS V14.01,2013-04-24 19:29:00,
2013-04-24 15:34:00,56.0,53.4,29.70,SW,225,11.0,18.0,91,0.11,,---,0.18,VWS V14.01,2013-04-24 19:34:00,
2013-04-24 15:39:00,56.0,53.4,29.71,SSW,202,14.0,18.0,91,0.11,,---,0.18,VWS V14.01,2013-04-24 19:39:00,
2013-04-24 15:44:00,56.0,53.4,29.68,SW,225,6.0,13.0,91,0.09,,---,0.19,VWS V14.01,2013-04-24 19:44:00,
2013-04-24 15:49:00,56.0,53.4,29.67,SSW,202,5.0,15.0,91,0.09,,---,0.19,VWS V14.01,2013-04-24 19:49:00,
2013-04-24 15:55:00,56.0,53.4,29.69,SW,225,10.0,20.0,91,0.09,,---,0.19,VWS V14.01,2013-04-24 19:55:00,
2013-04-24 16:00:00,57.0,54.4,29.69,SW,225,10.0,20.0,91,0.10,,---,0.20,VWS V14.01,2013-04-24 20:00:00,
2013-04-24 16:05:00,56.0,53.4,29.68,SW,225,14.0,19.0,91,0.07,,---,0.20,VWS V14.01,2013-04-24 20:05:00,
2013-04-24 16:10:00,57.0,54.1,29.66,South,180,6.0,20.0,90,0.08,,---,0.21,VWS V14.01,2013-04-24 20:10:00,
2013-04-24 16:15:00,57.0,54.1,29.66,SW,225,8.0,21.0,90,0.08,,---,0.21,VWS V14.01,2013-04-24 20:15:00,
2013-04-24 16:20:00,57.0,54.1,29.66,SW,225,14.0,21.0,90,0.08,,---,0.21,VWS V14.01,2013-04-24 20:20:00,
2013-04-24 16:25:00,57.0,53.8,29.67,WSW,248,10.0,15.0,89,0.06,,---,0.21,VWS V14.01,2013-04-24 20:25:00,
2013-04-24 16:30:00,57.0,53.8,29.67,South,180,13.0,15.0,89,0.06,,---,0.21,VWS V14.01,2013-04-24 20:30:00,
2013-04-24 16:35:00,57.0,53.5,29.68,SSW,202,9.0,17.0,88,0.06,,---,0.21,VWS V14.01,2013-04-24 20:35:00,
2013-04-24 16:40:00,57.0,53.8,29.67,SSW,202,11.0,11.0,89,0.03,,---,0.21,VWS V14.01,2013-04-24 20:40:00,
2013-04-24 16:46:00,57.0,53.5,29.67,WSW,248,18.0,21.0,88,0.04,,---,0.22,VWS V14.01,2013-04-24 20:46:00,
2013-04-24 16:51:00,55.0,49.6,29.70,NW,315,13.0,24.0,82,0.04,,---,0.22,VWS V14.01,2013-04-24 20:51:00,
2013-04-24 16:56:00,45.0,39.2,29.72,WNW,292,18.0,28.0,80,0.04,,---,0.22,VWS V14.01,2013-04-24 20:56:00,
2013-04-24 17:01:00,42.0,38.1,29.73,West,270,19.0,26.0,86,0.02,,---,0.22,VWS V14.01,2013-04-24 21:01:00,
2013-04-24 17:06:00,40.0,37.0,29.73,West,270,23.0,31.0,89,0.03,,---,0.23,VWS V14.01,2013-04-24 21:06:00,
2013-04-24 17:11:00,40.0,37.6,29.75,WNW,292,10.0,31.0,91,0.03,,---,0.23,VWS V14.01,2013-04-24 21:11:00,
2013-04-24 17:16:00,39.0,36.9,29.75,WNW,292,13.0,31.0,92,0.03,,---,0.23,VWS V14.01,2013-04-24 21:16:00,
2013-04-24 17:21:00,39.0,36.9,29.76,WNW,292,18.0,21.0,92,0.02,,---,0.23,VWS V14.01,2013-04-24 21:21:00,
2013-04-24 17:26:00,39.0,36.9,29.76,WNW,292,13.0,26.0,92,0.02,,---,0.23,VWS V14.01,2013-04-24 21:26:00,
2013-04-24 17:31:00,39.0,37.2,29.76,West,270,10.0,26.0,93,0.03,,---,0.24,VWS V14.01,2013-04-24 21:31:00,
2013-04-24 17:37:00,38.0,36.2,29.77,WNW,292,11.0,26.0,93,0.03,,---,0.24,VWS V14.01,2013-04-24 21:37:00,
2013-04-24 17:42:00,38.0,35.9,29.79,West,270,29.0,29.0,92,0.04,,---,0.25,VWS V14.01,2013-04-24 21:42:00,
2013-04-24 17:47:00,38.0,36.2,29.78,WNW,292,13.0,32.0,93,0.05,,---,0.26,VWS V14.01,2013-04-24 21:47:00,
2013-04-24 17:52:00,38.0,36.2,29.79,WNW,292,26.0,32.0,93,0.06,,---,0.27,VWS V14.01,2013-04-24 21:52:00,
2013-04-24 17:57:00,37.0,34.6,29.79,WNW,292,21.0,32.0,91,0.06,,---,0.27,VWS V14.01,2013-04-24 21:57:00,
2013-04-24 18:02:00,38.0,36.2,29.79,WNW,292,12.0,26.0,93,0.05,,---,0.27,VWS V14.01,2013-04-24 22:02:00,
2013-04-24 18:07:00,38.0,36.2,29.80,WNW,292,21.0,26.0,93,0.05,,---,0.27,VWS V14.01,2013-04-24 22:07:00,
2013-04-24 18:12:00,37.0,34.9,29.80,West,270,23.0,26.0,92,0.05,,---,0.27,VWS V14.01,2013-04-24 22:12:00,
2013-04-24 18:17:00,37.0,35.2,29.82,WNW,292,14.0,26.0,93,0.06,,---,0.28,VWS V14.01,2013-04-24 22:17:00,
2013-04-24 18:22:00,37.0,34.6,29.82,West,270,33.0,33.0,91,0.05,,---,0.28,VWS V14.01,2013-04-24 22:22:00,
2013-04-24 18:28:00,36.0,33.6,29.83,WNW,292,23.0,36.0,91,0.05,,---,0.28,VWS V14.01,2013-04-24 22:28:00,
2013-04-24 18:33:00,36.0,33.9,29.83,WNW,292,11.0,36.0,92,0.06,,---,0.29,VWS V14.01,2013-04-24 22:33:00,
2013-04-24 18:38:00,36.0,34.2,29.84,West,270,18.0,36.0,93,0.06,,---,0.29,VWS V14.01,2013-04-24 22:38:00,
2013-04-24 18:43:00,36.0,33.9,29.84,NW,315,19.0,29.0,92,0.04,,---,0.29,VWS V14.01,2013-04-24 22:43:00,
2013-04-24 18:48:00,36.0,34.2,29.85,WNW,292,16.0,29.0,93,0.04,,---,0.29,VWS V14.01,2013-04-24 22:48:00,
2013-04-24 18:53:00,36.0,34.4,29.86,WNW,292,13.0,29.0,94,0.05,,---,0.30,VWS V14.01,2013-04-24 22:53:00,
2013-04-24 18:58:00,36.0,34.4,29.86,WNW,292,15.0,29.0,94,0.05,,---,0.30,VWS V14.01,2013-04-24 22:58:00,
2013-04-24 19:03:00,35.0,33.2,29.87,West,270,21.0,23.0,93,0.03,,---,0.30,VWS V14.01,2013-04-24 23:03:00,
2013-04-24 19:08:00,35.0,33.2,29.88,WNW,292,13.0,23.0,93,0.03,,---,0.30,VWS V14.01,2013-04-24 23:08:00,
2013-04-24 19:13:00,35.0,33.5,29.89,WNW,292,16.0,23.0,94,0.03,,---,0.30,VWS V14.01,2013-04-24 23:13:00,
2013-04-24 19:19:00,35.0,33.5,29.88,West,270,16.0,23.0,94,0.03,,---,0.30,VWS V14.01,2013-04-24 23:19:00,
2013-04-24 19:24:00,35.0,33.5,29.88,WNW,292,18.0,24.0,94,0.02,,---,0.30,VWS V14.01,2013-04-24 23:24:00,
2013-04-24 19:29:00,35.0,33.5,29.88,West,270,14.0,24.0,94,0.02,,---,0.30,VWS V14.01,2013-04-24 23:29:00,
2013-04-24 19:34:00,35.0,33.5,29.89,WNW,292,7.0,24.0,94,0.02,,---,0.30,VWS V14.01,2013-04-24 23:34:00,
2013-04-24 19:39:00,35.0,33.7,29.90,NW,315,8.0,24.0,95,0.02,,---,0.30,VWS V14.01,2013-04-24 23:39:00,
2013-04-24 19:44:00,35.0,33.7,29.91,West,270,12.0,19.0,95,0.01,,---,0.30,VWS V14.01,2013-04-24 23:44:00,
2013-04-24 19:49:00,35.0,33.5,29.92,WNW,292,17.0,21.0,94,0.01,,---,0.30,VWS V14.01,2013-04-24 23:49:00,
2013-04-24 19:54:00,35.0,33.5,29.92,WNW,292,15.0,22.0,94,0.01,,---,0.30,VWS V14.01,2013-04-24 23:54:00,
2013-04-24 19:59:00,35.0,33.5,29.93,WNW,292,8.0,22.0,94,0.01,,---,0.30,VWS V14.01,2013-04-24 23:59:00,
2013-04-24 20:04:00,34.0,32.5,29.93,West,270,13.0,19.0,94,0.00,,---,0.30,VWS V14.01,2013-04-25 00:04:00,
2013-04-24 20:09:00,34.0,32.5,29.94,West,270,11.0,19.0,94,0.00,,---,0.30,VWS V14.01,2013-04-25 00:09:00,
2013-04-24 20:15:00,34.0,32.5,29.94,West,270,10.0,19.0,94,0.00,,---,0.30,VWS V14.01,2013-04-25 00:15:00,
2013-04-24 20:20:00,34.0,32.2,29.95,West,270,14.0,23.0,93,0.00,,---,0.30,VWS V14.01,2013-04-25 00:20:00,
2013-04-24 20:25:00,34.0,32.5,29.96,WNW,292,14.0,18.0,94,0.00,,---,0.30,VWS V14.01,2013-04-25 00:25:00,
2013-04-24 20:30:00,34.0,32.5,29.96,WNW,292,12.0,18.0,94,0.00,,---,0.30,VWS V14.01,2013-04-25 00:30:00,
2013-04-24 20:35:00,34.0,32.2,29.97,WNW,292,14.0,20.0,93,0.01,,---,0.31,VWS V14.01,2013-04-25 00:35:00,
2013-04-24 20:40:00,34.0,32.2,29.97,West,270,10.0,20.0,93,0.01,,---,0.31,VWS V14.01,2013-04-25 00:40:00,
2013-04-24 20:45:00,34.0,32.2,29.98,West,270,14.0,21.0,93,0.01,,---,0.31,VWS V14.01,2013-04-25 00:45:00,
2013-04-24 20:50:00,34.0,32.2,29.98,North,0,5.0,22.0,93,0.01,,---,0.31,VWS V14.01,2013-04-25 00:50:00,
2013-04-24 20:55:00,34.0,32.5,29.99,WNW,292,14.0,22.0,94,0.01,,---,0.31,VWS V14.01,2013-04-25 00:55:00,
2013-04-24 21:00:00,34.0,32.5,29.99,WNW,292,11.0,22.0,94,0.01,,---,0.31,VWS V14.01,2013-04-25 01:00:00,
2013-04-24 21:05:00,34.0,32.2,29.99,West,270,19.0,23.0,93,0.01,,---,0.31,VWS V14.01,2013-04-25 01:05:00,
2013-04-24 21:10:00,34.0,32.2,30.00,WNW,292,16.0,23.0,93,0.01,,---,0.31,VWS V14.01,2013-04-25 01:10:00,
2013-04-24 21:16:00,34.0,32.2,30.00,WNW,292,8.0,23.0,93,0.01,,---,0.31,VWS V14.01,2013-04-25 01:16:00,
2013-04-24 21:21:00,34.0,31.9,30.01,West,270,14.0,18.0,92,0.01,,---,0.31,VWS V14.01,2013-04-25 01:21:00,
2013-04-24 21:26:00,34.0,31.9,30.01,NW,315,11.0,24.0,92,0.01,,---,0.31,VWS V14.01,2013-04-25 01:26:00,
2013-04-24 21:31:00,34.0,32.2,30.02,WNW,292,9.0,24.0,93,0.01,,---,0.31,VWS V14.01,2013-04-25 01:31:00,
2013-04-24 21:36:00,34.0,32.2,30.03,WNW,292,10.0,24.0,93,0.01,,---,0.31,VWS V14.01,2013-04-25 01:36:00,
2013-04-24 21:41:00,34.0,32.5,30.03,West,270,11.0,14.0,94,0.00,,---,0.31,VWS V14.01,2013-04-25 01:41:00,
2013-04-24 21:46:00,34.0,32.5,30.03,WNW,292,5.0,14.0,94,0.00,,---,0.31,VWS V14.01,2013-04-25 01:46:00,
2013-04-24 21:51:00,34.0,32.5,30.03,West,270,8.0,14.0,94,0.00,,---,0.31,VWS V14.01,2013-04-25 01:51:00,
2013-04-24 21:56:00,34.0,32.7,30.04,WNW,292,12.0,14.0,95,0.00,,---,0.31,VWS V14.01,2013-04-25 01:56:00,
2013-04-24 22:01:00,34.0,32.7,30.04,WNW,292,14.0,18.0,95,0.00,,---,0.31,VWS V14.01,2013-04-25 02:01:00,
2013-04-24 22:06:00,34.0,32.7,30.04,West,270,8.0,18.0,95,0.00,,---,0.31,VWS V14.01,2013-04-25 02:06:00,
2013-04-24 22:12:00,34.0,32.7,30.05,WNW,292,11.0,18.0,95,0.00,,---,0.31,VWS V14.01,2013-04-25 02:12:00,
2013-04-24 22:17:00,34.0,32.7,30.05,West,270,8.0,18.0,95,0.00,,---,0.31,VWS V14.01,2013-04-25 02:17:00,
2013-04-24 22:22:00,34.0,32.7,30.06,West,270,7.0,10.0,95,0.00,,---,0.31,VWS V14.01,2013-04-25 02:22:00,
2013-04-24 22:27:00,34.0,32.7,30.06,WNW,292,3.0,12.0,95,0.00,,---,0.31,VWS V14.01,2013-04-25 02:27:00,
2013-04-24 22:32:00,34.0,32.7,30.06,WNW,292,3.0,12.0,95,0.00,,---,0.31,VWS V14.01,2013-04-25 02:32:00,
2013-04-24 22:37:00,34.0,33.0,30.06,West,270,8.0,12.0,96,0.00,,---,0.31,VWS V14.01,2013-04-25 02:37:00,
2013-04-24 22:42:00,34.0,32.7,30.07,WSW,248,8.0,13.0,95,0.00,,---,0.31,VWS V14.01,2013-04-25 02:42:00,
2013-04-24 22:47:00,34.0,32.7,30.07,WSW,248,6.0,13.0,95,0.00,,---,0.31,VWS V14.01,2013-04-25 02:47:00,
2013-04-24 22:52:00,34.0,32.7,30.07,West,270,5.0,13.0,95,0.00,,---,0.31,VWS V14.01,2013-04-25 02:52:00,
2013-04-24 22:57:00,34.0,32.7,30.07,West,270,9.0,13.0,95,0.00,,---,0.31,VWS V14.01,2013-04-25 02:57:00,
2013-04-24 23:02:00,34.0,33.0,30.08,WNW,292,11.0,11.0,96,0.00,,---,0.31,VWS V14.01,2013-04-25 03:02:00,
2013-04-24 23:07:00,34.0,33.0,30.08,West,270,6.0,17.0,96,0.01,,---,0.32,VWS V14.01,2013-04-25 03:07:00,
2013-04-24 23:12:00,34.0,32.7,30.08,WNW,292,6.0,17.0,95,0.01,,---,0.32,VWS V14.01,2013-04-25 03:12:00,
2013-04-24 23:17:00,34.0,32.7,30.09,WSW,248,8.0,17.0,95,0.01,,---,0.32,VWS V14.01,2013-04-25 03:17:00,
2013-04-24 23:23:00,34.0,32.7,30.08,WNW,292,10.0,13.0,95,0.01,,---,0.32,VWS V14.01,2013-04-25 03:23:00,
2013-04-24 23:28:00,34.0,32.7,30.09,West,270,11.0,14.0,95,0.01,,---,0.32,VWS V14.01,2013-04-25 03:28:00,
2013-04-24 23:33:00,34.0,32.7,30.09,West,270,10.0,14.0,95,0.01,,---,0.32,VWS V14.01,2013-04-25 03:33:00,
2013-04-24 23:38:00,34.0,32.7,30.09,West,270,11.0,14.0,95,0.01,,---,0.32,VWS V14.01,2013-04-25 03:38:00,
2013-04-24 23:43:00,34.0,32.7,30.09,WNW,292,11.0,15.0,95,0.01,,---,0.32,VWS V14.01,2013-04-25 03:43:00,
2013-04-24 23:48:00,34.0,32.7,30.09,West,270,6.0,15.0,95,0.01,,---,0.32,VWS V14.01,2013-04-25 03:48:00,
2013-04-24 23:53:00,34.0,32.7,30.09,WNW,292,6.0,15.0,95,0.01,,---,0.32,VWS V14.01,2013-04-25 03:53:00,
2013-04-24 23:58:00,34.0,32.7,30.09,WNW,292,9.0,15.0,95,0.01,,---,0.32,VWS V14.01,2013-04-25 03:58:00,